SCP
0 0 0 0 0 -0 0 0 0 0 0 0 0 0 0 0 0 0 0 0 0 0 0 -0 0 -0 0 0 0 0 0 0 0 0 0 0 0 0 0 0 0 0 -0 -0
0 0 0 0 0 0 0 0 0 0 0 0 0 0 0 0 0 0 0 0 0 0 0 0 -0 0 0 -0 0 0 0 0 0 0 0 0 0 0 0 0 0 0 0 -0
0 0 0 0 0 0 0 0 0 0 0 0 0 0 0 0 0 0 0 0 0 0 0 0 0 0 0 0 0 0 0 0 0 0 0 0 0 0 0 0 0 -0 -0 -0
0 0 0 0 0 0 0 0 0 0 0 0 0 0 0 0 0 0 0 0 0 0 0 0 0 0 0 -0 0 0 0 0 0 0 0 0 0 0 0 0 0 -0 -0 -0
0 0 0 0 0 0 0 0 0 0 0 0 0 0 0 0 0 0 0 0 -0 0 0 0 -0 -0 0 0 0 0 0 -0 0 0 -0 0 0 0 0 0 0 -0 -0 -0
0 0 0 0 0 0 0 0 0 0 0 0 0 0 0 0 0 0 0 0 0 0 0 0 -0 -0 -0 -0 -0 -0 0 0 0 0 0 0 0 0 0 0 0 -0 -0 -0
0 0 0 0 0 0 0 0 0 0 0 0 0 0 0 0 0 0 0 0 0 0 -0 -0 0 -0 -0 -0 -0 0 0 -0 -0 -0 -0 -0 0 0 0 0 0 0 0 -0
0 0 0 0 0 0 0 0 0 0 0 0 0 0 0 0 0 0 0 0 0 0 0 0 0 0 0 0 -0 -0 -0 -0 0 0 0 -0 0 0 0 0 0 0 0 -0
0 0 0 0 0 0 0 0 0 0 0 0 0 0 0 0 0 0 0 0 0 -0 0 0 0 -0 -0 0 0 0 -0 -0 -0 0 -0 -0 0 0 0 0 0 0 0 0
0 0 0 0 0 0 0 0 0 0 0 0 0 0 0 0 0 0 0 0 0 -0 -0 0 0 0 0 0 -0 0 -0 0 -0 -0 0 -0 -0 0 0 0 0 0 0 0
0 0 0 0 0 0 0 0 0 0 0 0 0 0 0 0 0 0 0 0 0 0 -0 0 0 0 0 0 0 0 -0 0 0 0 0 -0 0 0 0 0 0 0 0 0
0 0 0 0 0 0 0 0 0 0 0 0 0 0 -0 -0 -0 0 0 0 0 -0 -0 0 0 0 0 0 0 0 0 0 0 0 0 0 -0 0 0 0 0 0 0 0
0 0 0 0 0 0 0 0 0 0 0 0 0 0 0 0 -0 0 0 0 0 0 -0 0 0 0 0 0 0 0 0 0 0 0 0 0 0 0 0 0 0 0 0 0
-0 0 0 0 0 0 0 0 0 0 0 0 0 0 0 -0 0 0 -0 0 0 0 0 0 0 -0 0 0 0 -0 -0 0 -0 0 -0 -0 0 0 0 0 0 0 0 0
0 0 0 0 0 0 0 0 0 0 0 0 0 0 0 -0 0 -0 -0 0 0 0 -0 -0 -0 -0 0 0 0 -0 -0 0 0 0 0 0 0 0 0 0 0 0 0 0
0 0 0 0 0 0 0 0 0 0 0 0 0 0 0 0 0 0 -0 0 0 0 0 0 0 -0 0 0 0 0 0 0 -0 0 0 0 0 -0 -0 0 0 0 0 0
0 0 0 0 0 0 0 0 0 0 0 0 0 0 -0 0 0 0 0 0 0 0 0 0 0 0 0 0 -0 0 0 0 0 0 0 0 0 -0 -0 0 0 0 0 0
0 0 0 0 0 0 0 0 0 -0 0 0 0 0 0 0 0 0 0 0 0 0 0 0 0 0 0 -0 0 -0 -0 -0 0 0 0 0 -0 -0 0 0 0 0 0 0
0 0 0 0 0 0 0 0 0 0 0 0 0 0 0 0 0 0 0 0 0 0 0 0 0 0 -0 -0 -0 -0 0 -0 -0 0 0 0 -0 -0 0 -0 0 0 0 0
0 0 0 0 0 -0 -0 0 0 0 0 0 0 0 0 0 0 0 0 0 0 0 0 0 0 0 0 0 0 -0 0 0 -0 0 0 0 -0 -0 -0 -0 -0 -0 -0 0
0 0 0 0 0 0 0 0 0 0 0 -0 0 0 0 0 0 0 0 0 0 0 0 0 -0 0 0 0 -0 0 -0 0 0 -0 -0 -0 -0 -0 -0 -0 -0 0 -0 0
0 0 0 0 0 0 0 0 0 0 0 0 0 0 0 0 0 0 0 0 0 0 0 0 -0 0 -0 0 0 -0 -0 -0 -0 -0 -0 -0 0 0 -0 -0 -0 0 0 0
0 0 0 0 0 0 0 0 0 0 0 0 0 0 0 0 0 0 0 0 0 0 0 0 0 -0 -0 0 -0 0 0 -0 -0 -0 -0 -0 0 0 0 0 0 0 0 0
0 0 0 0 0 0 0 0 0 0 0 0 0 0 0 0 0 0 0 0 0 0 0 0 0 -0 0 0 0 -0 -0 0 -0 -0 -0 -0 -0 -0 -0 -0 0 0 0 0
0 0 0 0 0 0 0 0 0 0 0 0 0 0 0 0 0 0 0 0 0 0 0 0 0 0 0 0 0 0 0 -0 -0 -0 -0 -0 0 -0 -0 -0 -0 -0 0 0
0 0 0 0 0 0 0 0 0 0 0 0 0 0 0 0 0 0 0 0 0 0 0 0 0 0 0 0 -0 -0 0 0 -0 -0 -0 -0 0 0 0 -0 -0 -0 -0 0
0 0 0 0 0 0 0 0 0 0 0 0 0 0 0 0 0 0 0 0 0 0 -0 0 0 0 0 -0 0 0 0 0 -0 0 0 0 0 0 0 0 -0 -0 -0 -0
Wind_Speed_500mb
58 61 63 62 64 69 57 21 5 8 9 9 3 2 12 26 19 22 10 8 7 8 13 9 8 9 9 16 4 8 7 3 7 16 13 15 5 8 7 7 13 15 4 14
55 59 59 61 56 60 55 27 9 13 12 5 6 13 12 10 14 17 10 11 6 5 8 8 11 11 12 29 4 3 4 3 7 15 6 9 2 10 10 6 2 19 10 14
55 56 57 56 54 51 40 16 8 9 8 7 3 8 8 14 28 18 23 12 10 9 12 13 14 19 13 14 11 20 10 7 8 7 15 13 18 23 9 7 6 13 40 27
57 54 53 54 53 48 28 16 5 5 8 9 14 7 9 15 16 8 17 9 7 28 12 28 14 12 11 15 26 8 12 10 10 18 25 27 31 33 34 23 17 13 14 14
56 55 50 50 53 49 15 15 12 11 27 24 10 9 6 16 24 10 16 11 33 29 20 27 44 37 19 21 13 5 6 9 7 18 20 37 35 37 37 33 34 26 25 39
60 51 48 45 48 46 15 20 8 11 16 9 7 5 10 29 32 22 25 29 30 27 31 40 61 63 63 43 32 13 12 8 2 11 20 21 23 40 45 31 25 24 20 16
55 53 47 39 37 39 34 21 16 7 9 6 9 20 38 31 27 25 43 42 18 30 73 75 46 39 45 34 32 32 8 8 7 10 10 11 7 18 15 29 25 26 14 21
55 54 51 34 31 28 32 26 12 7 8 12 31 16 15 31 35 23 36 47 48 49 36 9 12 9 6 1 12 24 30 15 6 7 6 15 17 13 11 9 4 13 12 15
57 56 50 36 29 25 30 28 14 14 14 8 18 26 26 14 16 11 32 39 32 29 6 5 7 6 8 9 17 11 20 27 14 5 6 8 6 13 26 20 10 13 22 20
61 54 49 37 28 25 25 30 13 15 15 29 15 10 9 17 11 9 20 21 14 23 10 7 5 6 7 8 10 9 2 4 19 13 9 10 8 24 27 13 4 32 35 36
60 54 46 40 25 25 25 32 29 25 17 53 53 26 22 22 20 6 19 18 11 9 10 6 6 5 7 8 6 13 5 6 3 6 9 7 24 28 5 11 19 21 39 43
55 50 40 34 29 27 24 36 36 31 33 60 84 81 79 76 60 39 12 8 4 4 5 4 6 5 6 9 6 5 5 5 5 4 4 6 31 38 25 18 17 16 34 45
51 45 35 35 34 25 28 38 38 42 31 56 26 18 2 10 23 17 16 9 8 7 2 4 5 8 3 5 4 7 6 7 5 9 6 9 24 33 48 58 55 56 48 23
50 47 38 32 31 34 34 40 41 42 18 11 17 8 47 41 44 34 36 31 19 9 6 7 5 7 8 4 7 4 4 11 13 8 11 23 27 43 45 57 61 69 28 18
45 44 35 32 32 28 34 45 48 44 31 10 26 52 6 20 24 23 39 44 24 11 7 6 6 8 7 4 5 4 5 7 6 5 29 15 29 35 29 34 52 61 37 39
47 44 33 32 31 26 27 13 4 3 35 8 8 25 15 21 4 22 35 43 26 8 8 9 9 11 4 3 5 6 19 25 21 8 41 37 29 11 18 29 31 39 40 61
44 39 35 31 28 22 19 6 3 2 22 8 10 13 9 19 10 17 31 37 20 11 7 8 7 6 8 3 4 14 37 33 28 30 28 16 25 12 21 19 30 47 59 67
42 33 29 29 28 30 29 7 33 29 18 11 4 8 14 11 9 11 21 16 16 12 8 8 5 2 1 4 14 27 30 25 19 34 24 20 23 34 40 37 42 50 58 54
34 27 18 6 2 5 9 15 18 39 21 6 6 3 7 2 6 12 14 16 5 7 4 6 2 2 4 10 10 17 20 23 31 28 28 26 34 40 46 48 47 47 48 45
26 14 4 3 2 9 9 3 3 11 9 10 7 14 7 11 4 6 0 6 4 5 6 6 3 6 9 9 13 17 23 23 29 24 31 34 34 34 33 40 34 33 39 36
23 18 8 10 9 8 4 6 10 9 6 11 13 29 12 12 6 7 4 3 1 2 3 3 4 6 7 12 7 4 10 8 14 17 18 22 31 33 38 39 38 32 32 33
38 26 22 12 4 4 3 5 7 9 8 10 9 15 25 9 14 2 2 3 4 5 8 2 4 7 19 14 10 6 4 8 10 13 14 22 29 36 43 44 40 37 22 19
8 5 6 5 5 3 8 8 7 5 6 4 9 8 13 12 13 3 5 4 7 4 5 6 7 7 24 23 17 15 15 13 11 13 14 18 23 25 38 46 36 36 38 27
5 6 7 8 9 9 9 7 3 15 23 49 33 7 12 8 5 4 5 6 4 5 3 8 5 21 24 26 19 18 17 16 15 13 13 16 19 19 30 42 45 39 41 35
8 8 10 13 23 19 15 19 20 28 33 31 15 5 9 3 5 4 3 1 4 9 8 6 14 28 24 19 12 12 22 15 15 15 16 18 17 15 22 32 39 41 46 45
10 14 10 19 9 11 7 14 30 33 29 28 9 4 2 9 7 5 11 10 10 8 7 13 30 30 25 26 14 15 20 15 15 18 14 17 13 12 15 22 31 37 42 49
10 15 26 41 39 27 34 29 40 46 26 5 7 3 3 5 5 4 8 9 7 14 20 15 29 35 32 30 27 26 27 18 19 19 17 12 15 16 14 15 21 26 34 39
Wind_Direction_500mb
356 355 355 358 352 354 2 3 51 331 312 2 20 352 301 308 334 340 300 282 239 262 298 273 275 282 286 336 3 328 351 197 238 235 240 248 272 246 170 197 231 251 256 265
354 355 355 359 359 355 351 344 319 29 346 65 320 302 286 288 337 314 317 293 273 303 276 307 277 254 268 315 252 206 284 297 319 339 18 53 204 246 214 252 289 248 226 251
349 352 352 357 4 357 356 349 355 338 37 58 122 311 275 330 320 295 318 266 288 334 290 248 269 273 292 337 242 274 147 218 193 203 264 317 295 287 269 203 245 252 244 288
344 347 349 350 359 4 5 7 356 16 308 331 318 266 262 321 343 265 295 292 293 314 283 296 251 237 295 297 282 258 162 227 217 245 261 283 276 263 265 244 237 240 303 288
339 342 344 346 350 5 14 7 357 327 290 278 292 310 277 315 327 305 296 275 305 305 276 272 288 280 250 246 291 262 191 251 247 272 256 257 277 254 252 255 252 254 261 274
338 334 338 344 344 360 8 349 308 285 277 287 302 268 315 312 309 300 259 298 306 299 291 297 287 276 269 257 256 227 187 203 247 258 287 301 280 231 224 228 231 216 228 257
334 336 333 335 341 344 348 347 335 304 276 281 271 290 296 296 306 290 295 301 292 297 309 303 296 261 253 250 240 226 218 170 197 285 310 249 260 18 205 216 232 233 270 283
326 331 330 328 327 326 330 336 301 255 280 287 298 280 314 305 305 292 289 298 304 317 315 330 334 339 350 234 211 201 209 203 244 249 238 293 241 41 11 359 245 28 294 315
324 322 324 324 318 316 312 322 293 245 288 258 264 317 296 297 302 306 304 322 337 347 352 347 335 320 321 324 338 350 196 201 192 204 279 293 48 347 341 314 261 353 343 337
321 322 319 313 302 308 300 296 280 251 263 281 285 235 289 290 283 284 294 324 338 2 359 360 339 308 335 332 312 339 71 186 219 226 244 258 344 326 318 192 313 318 335 325
324 322 322 318 292 296 299 291 291 273 252 282 277 275 245 261 259 267 309 339 4 337 23 354 316 297 321 298 294 329 320 293 247 200 226 266 356 328 259 319 310 322 338 314
321 320 323 316 301 301 296 288 292 292 260 273 295 286 274 264 267 263 274 271 272 317 327 3 299 293 292 295 308 340 323 316 288 311 270 278 293 245 291 324 324 337 312 321
316 316 319 315 311 302 281 288 288 290 286 304 286 292 285 215 311 272 227 245 230 205 249 304 290 282 272 299 299 292 275 332 322 310 330 280 294 4 358 13 350 339 332 297
316 315 310 307 301 293 285 281 284 280 274 278 284 311 298 286 266 256 242 247 261 253 233 225 255 271 226 264 282 285 267 314 322 303 307 331 355 4 1 343 348 351 16 120
315 314 312 307 306 298 290 286 286 268 225 292 292 309 342 338 244 254 220 223 239 212 183 214 240 250 255 278 290 266 3 312 343 312 310 330 323 326 2 351 353 349 30 63
318 315 303 295 299 304 309 319 337 264 202 277 291 317 301 340 277 207 221 220 235 239 223 237 255 250 257 354 281 268 313 313 315 286 318 316 318 348 36 8 353 24 38 59
320 314 305 295 287 274 247 250 253 137 171 254 289 302 293 317 206 213 218 228 242 251 264 242 246 272 193 204 266 290 317 322 335 353 354 338 7 11 31 13 27 36 51 59
322 314 303 292 280 270 275 337 219 176 221 253 284 279 316 197 193 217 208 206 221 238 256 273 241 263 199 263 264 303 330 341 345 360 1 12 27 24 24 31 38 47 42 42
325 319 318 311 88 179 286 299 216 213 209 257 231 267 269 304 3 271 189 192 193 231 241 251 182 298 216 234 269 306 340 355 333 348 18 27 32 26 23 31 33 44 46 43
335 330 303 168 119 310 291 255 209 194 225 242 246 210 267 309 310 290 60 190 200 208 239 293 88 259 249 259 281 302 313 322 343 352 16 17 24 32 42 50 42 43 47 39
1 351 318 317 291 308 255 232 189 200 243 228 237 215 213 239 190 229 229 202 243 332 251 226 293 288 237 201 185 299 338 343 13 15 23 40 48 43 40 36 36 38 41 43
321 301 304 309 284 237 259 239 196 195 231 214 206 225 205 240 216 168 318 146 38 251 339 287 271 256 181 195 186 203 84 83 74 36 49 46 55 49 48 42 36 31 31 44
338 276 255 241 224 243 218 220 254 236 222 241 259 244 210 186 205 120 84 88 235 334 51 234 236 230 183 188 178 175 168 118 112 80 51 49 42 35 42 46 44 46 48 50
292 252 251 207 208 234 208 206 229 321 304 297 293 242 216 176 145 148 132 231 77 22 2 240 250 197 190 188 174 169 179 153 134 127 104 71 51 54 49 46 41 48 53 57
251 248 242 227 229 236 245 268 275 302 324 345 303 234 208 236 155 200 123 69 258 199 232 232 197 169 174 201 179 159 169 162 170 151 121 110 96 92 70 53 49 58 60 63
240 236 259 261 287 276 281 303 308 329 326 338 304 244 160 222 158 127 215 151 220 246 219 235 175 172 164 213 199 188 186 175 159 169 136 126 130 110 87 57 50 61 64 68
235 246 245 259 278 269 282 300 301 314 319 203 187 232 272 340 169 199 182 206 214 203 199 186 196 207 233 222 216 201 191 197 186 156 149 138 153 132 102 73 66 62 63 65
Wind_Speed_850mb
58 61 63 62 64 69 57 21 5 8 9 9 3 2 12 26 19 22 10 8 7 8 13 9 8 9 9 16 4 8 7 3 7 16 13 15 5 8 7 7 13 15 4 14
55 59 59 61 56 60 55 27 9 13 12 5 6 13 12 10 14 17 10 11 6 5 8 8 11 11 12 29 4 3 4 3 7 15 6 9 2 10 10 6 2 19 10 14
55 56 57 56 54 51 40 16 8 9 8 7 3 8 8 14 28 18 23 12 10 9 12 13 14 19 13 14 11 20 10 7 8 7 15 13 18 23 9 7 6 13 40 27
57 54 53 54 53 48 28 16 5 5 8 9 14 7 9 15 16 8 17 9 7 28 12 28 14 12 11 15 26 8 12 10 10 18 25 27 31 33 34 23 17 13 14 14
56 55 50 50 53 49 15 15 12 11 27 24 10 9 6 16 24 10 16 11 33 29 20 27 44 37 19 21 13 5 6 9 7 18 20 37 35 37 37 33 34 26 25 39
60 51 48 45 48 46 15 20 8 11 16 9 7 5 10 29 32 22 25 29 30 27 31 40 61 63 63 43 32 13 12 8 2 11 20 21 23 40 45 31 25 24 20 16
55 53 47 39 37 39 34 21 16 7 9 6 9 20 38 31 27 25 43 42 18 30 73 75 46 39 45 34 32 32 8 8 7 10 10 11 7 18 15 29 25 26 14 21
55 54 51 34 31 28 32 26 12 7 8 12 31 16 15 31 35 23 36 47 48 49 36 9 12 9 6 1 12 24 30 15 6 7 6 15 17 13 11 9 4 13 12 15
57 56 50 36 29 25 30 28 14 14 14 8 18 26 26 14 16 11 32 39 32 29 6 5 7 6 8 9 17 11 20 27 14 5 6 8 6 13 26 20 10 13 22 20
61 54 49 37 28 25 25 30 13 15 15 29 15 10 9 17 11 9 20 21 14 23 10 7 5 6 7 8 10 9 2 4 19 13 9 10 8 24 27 13 4 32 35 36
60 54 46 40 25 25 25 32 29 25 17 53 53 26 22 22 20 6 19 18 11 9 10 6 6 5 7 8 6 13 5 6 3 6 9 7 24 28 5 11 19 21 39 43
55 50 40 34 29 27 24 36 36 31 33 60 84 81 79 76 60 39 12 8 4 4 5 4 6 5 6 9 6 5 5 5 5 4 4 6 31 38 25 18 17 16 34 45
51 45 35 35 34 25 28 38 38 42 31 56 26 18 2 10 23 17 16 9 8 7 2 4 5 8 3 5 4 7 6 7 5 9 6 9 24 33 48 58 55 56 48 23
50 47 38 32 31 34 34 40 41 42 18 11 17 8 47 41 44 34 36 31 19 9 6 7 5 7 8 4 7 4 4 11 13 8 11 23 27 43 45 57 61 69 28 18
45 44 35 32 32 28 34 45 48 44 31 10 26 52 6 20 24 23 39 44 24 11 7 6 6 8 7 4 5 4 5 7 6 5 29 15 29 35 29 34 52 61 37 39
47 44 33 32 31 26 27 13 4 3 35 8 8 25 15 21 4 22 35 43 26 8 8 9 9 11 4 3 5 6 19 25 21 8 41 37 29 11 18 29 31 39 40 61
44 39 35 31 28 22 19 6 3 2 22 8 10 13 9 19 10 17 31 37 20 11 7 8 7 6 8 3 4 14 37 33 28 30 28 16 25 12 21 19 30 47 59 67
42 33 29 29 28 30 29 7 33 29 18 11 4 8 14 11 9 11 21 16 16 12 8 8 5 2 1 4 14 27 30 25 19 34 24 20 23 34 40 37 42 50 58 54
34 27 18 6 2 5 9 15 18 39 21 6 6 3 7 2 6 12 14 16 5 7 4 6 2 2 4 10 10 17 20 23 31 28 28 26 34 40 46 48 47 47 48 45
26 14 4 3 2 9 9 3 3 11 9 10 7 14 7 11 4 6 0 6 4 5 6 6 3 6 9 9 13 17 23 23 29 24 31 34 34 34 33 40 34 33 39 36
23 18 8 10 9 8 4 6 10 9 6 11 13 29 12 12 6 7 4 3 1 2 3 3 4 6 7 12 7 4 10 8 14 17 18 22 31 33 38 39 38 32 32 33
38 26 22 12 4 4 3 5 7 9 8 10 9 15 25 9 14 2 2 3 4 5 8 2 4 7 19 14 10 6 4 8 10 13 14 22 29 36 43 44 40 37 22 19
8 5 6 5 5 3 8 8 7 5 6 4 9 8 13 12 13 3 5 4 7 4 5 6 7 7 24 23 17 15 15 13 11 13 14 18 23 25 38 46 36 36 38 27
5 6 7 8 9 9 9 7 3 15 23 49 33 7 12 8 5 4 5 6 4 5 3 8 5 21 24 26 19 18 17 16 15 13 13 16 19 19 30 42 45 39 41 35
8 8 10 13 23 19 15 19 20 28 33 31 15 5 9 3 5 4 3 1 4 9 8 6 14 28 24 19 12 12 22 15 15 15 16 18 17 15 22 32 39 41 46 45
10 14 10 19 9 11 7 14 30 33 29 28 9 4 2 9 7 5 11 10 10 8 7 13 30 30 25 26 14 15 20 15 15 18 14 17 13 12 15 22 31 37 42 49
10 15 26 41 39 27 34 29 40 46 26 5 7 3 3 5 5 4 8 9 7 14 20 15 29 35 32 30 27 26 27 18 19 19 17 12 15 16 14 15 21 26 34 39
Wind_Direction_850mb
356 355 355 358 352 354 2 3 51 331 312 2 20 352 301 308 334 340 300 282 239 262 298 273 275 282 286 336 3 328 351 197 238 235 240 248 272 246 170 197 231 251 256 265
354 355 355 359 359 355 351 344 319 29 346 65 320 302 286 288 337 314 317 293 273 303 276 307 277 254 268 315 252 206 284 297 319 339 18 53 204 246 214 252 289 248 226 251
349 352 352 357 4 357 356 349 355 338 37 58 122 311 275 330 320 295 318 266 288 334 290 248 269 273 292 337 242 274 147 218 193 203 264 317 295 287 269 203 245 252 244 288
344 347 349 350 359 4 5 7 356 16 308 331 318 266 262 321 343 265 295 292 293 314 283 296 251 237 295 297 282 258 162 227 217 245 261 283 276 263 265 244 237 240 303 288
339 342 344 346 350 5 14 7 357 327 290 278 292 310 277 315 327 305 296 275 305 305 276 272 288 280 250 246 291 262 191 251 247 272 256 257 277 254 252 255 252 254 261 274
338 334 338 344 344 360 8 349 308 285 277 287 302 268 315 312 309 300 259 298 306 299 291 297 287 276 269 257 256 227 187 203 247 258 287 301 280 231 224 228 231 216 228 257
334 336 333 335 341 344 348 347 335 304 276 281 271 290 296 296 306 290 295 301 292 297 309 303 296 261 253 250 240 226 218 170 197 285 310 249 260 18 205 216 232 233 270 283
326 331 330 328 327 326 330 336 301 255 280 287 298 280 314 305 305 292 289 298 304 317 315 330 334 339 350 234 211 201 209 203 244 249 238 293 241 41 11 359 245 28 294 315
324 322 324 324 318 316 312 322 293 245 288 258 264 317 296 297 302 306 304 322 337 347 352 347 335 320 321 324 338 350 196 201 192 204 279 293 48 347 341 314 261 353 343 337
321 322 319 313 302 308 300 296 280 251 263 281 285 235 289 290 283 284 294 324 338 2 359 360 339 308 335 332 312 339 71 186 219 226 244 258 344 326 318 192 313 318 335 325
324 322 322 318 292 296 299 291 291 273 252 282 277 275 245 261 259 267 309 339 4 337 23 354 316 297 321 298 294 329 320 293 247 200 226 266 356 328 259 319 310 322 338 314
321 320 323 316 301 301 296 288 292 292 260 273 295 286 274 264 267 263 274 271 272 317 327 3 299 293 292 295 308 340 323 316 288 311 270 278 293 245 291 324 324 337 312 321
316 316 319 315 311 302 281 288 288 290 286 304 286 292 285 215 311 272 227 245 230 205 249 304 290 282 272 299 299 292 275 332 322 310 330 280 294 4 358 13 350 339 332 297
316 315 310 307 301 293 285 281 284 280 274 278 284 311 298 286 266 256 242 247 261 253 233 225 255 271 226 264 282 285 267 314 322 303 307 331 355 4 1 343 348 351 16 120
315 314 312 307 306 298 290 286 286 268 225 292 292 309 342 338 244 254 220 223 239 212 183 214 240 250 255 278 290 266 3 312 343 312 310 330 323 326 2 351 353 349 30 63
318 315 303 295 299 304 309 319 337 264 202 277 291 317 301 340 277 207 221 220 235 239 223 237 255 250 257 354 281 268 313 313 315 286 318 316 318 348 36 8 353 24 38 59
320 314 305 295 287 274 247 250 253 137 171 254 289 302 293 317 206 213 218 228 242 251 264 242 246 272 193 204 266 290 317 322 335 353 354 338 7 11 31 13 27 36 51 59
322 314 303 292 280 270 275 337 219 176 221 253 284 279 316 197 193 217 208 206 221 238 256 273 241 263 199 263 264 303 330 341 345 360 1 12 27 24 24 31 38 47 42 42
325 319 318 311 88 179 286 299 216 213 209 257 231 267 269 304 3 271 189 192 193 231 241 251 182 298 216 234 269 306 340 355 333 348 18 27 32 26 23 31 33 44 46 43
335 330 303 168 119 310 291 255 209 194 225 242 246 210 267 309 310 290 60 190 200 208 239 293 88 259 249 259 281 302 313 322 343 352 16 17 24 32 42 50 42 43 47 39
1 351 318 317 291 308 255 232 189 200 243 228 237 215 213 239 190 229 229 202 243 332 251 226 293 288 237 201 185 299 338 343 13 15 23 40 48 43 40 36 36 38 41 43
321 301 304 309 284 237 259 239 196 195 231 214 206 225 205 240 216 168 318 146 38 251 339 287 271 256 181 195 186 203 84 83 74 36 49 46 55 49 48 42 36 31 31 44
338 276 255 241 224 243 218 220 254 236 222 241 259 244 210 186 205 120 84 88 235 334 51 234 236 230 183 188 178 175 168 118 112 80 51 49 42 35 42 46 44 46 48 50
292 252 251 207 208 234 208 206 229 321 304 297 293 242 216 176 145 148 132 231 77 22 2 240 250 197 190 188 174 169 179 153 134 127 104 71 51 54 49 46 41 48 53 57
251 248 242 227 229 236 245 268 275 302 324 345 303 234 208 236 155 200 123 69 258 199 232 232 197 169 174 201 179 159 169 162 170 151 121 110 96 92 70 53 49 58 60 63
240 236 259 261 287 276 281 303 308 329 326 338 304 244 160 222 158 127 215 151 220 246 219 235 175 172 164 213 199 188 186 175 159 169 136 126 130 110 87 57 50 61 64 68
235 246 245 259 278 269 282 300 301 314 319 203 187 232 272 340 169 199 182 206 214 203 199 186 196 207 233 222 216 201 191 197 186 156 149 138 153 132 102 73 66 62 63 65